TimeCST,TemperatureF,Dew PointF,Humidity,Sea Level PressureIn,VisibilityMPH,Wind Direction,Wind SpeedMPH,Gust SpeedMPH,PrecipitationIn,Events,Conditions,WindDirDegrees,DateUTC
12:15 AM,30.2,28.4,93,30.30,10.0,Calm,Calm,-,N/A,,Clear,0,2013-11-07 06:15:00
12:35 AM,32.0,30.2,93,30.30,10.0,Calm,Calm,-,N/A,,Clear,0,2013-11-07 06:35:00
12:55 AM,32.0,30.2,93,30.30,10.0,SW,3.5,-,N/A,,Partly Cloudy,230,2013-11-07 06:55:00
1:35 AM,30.2,28.4,93,30.30,-9999.0,SW,4.6,-,N/A,,Unknown,220,2013-11-07 07:35:00
1:55 AM,30.2,28.4,93,30.30,10.0,SW,5.8,-,N/A,,Clear,230,2013-11-07 07:55:00
2:15 AM,30.2,30.2,100,30.30,10.0,Calm,Calm,-,N/A,,Clear,0,2013-11-07 08:15:00
2:35 AM,30.2,30.2,100,30.29,10.0,Calm,Calm,-,N/A,,Clear,0,2013-11-07 08:35:00
2:55 AM,30.2,30.2,100,30.29,10.0,Calm,Calm,-,N/A,,Clear,0,2013-11-07 08:55:00
3:15 AM,30.2,28.4,93,30.29,10.0,SW,4.6,-,N/A,,Clear,230,2013-11-07 09:15:00
3:35 AM,28.4,28.4,100,30.29,10.0,SW,5.8,-,N/A,,Clear,230,2013-11-07 09:35:00
3:55 AM,28.4,26.6,93,30.30,10.0,WSW,4.6,-,N/A,,Clear,250,2013-11-07 09:55:00
4:15 AM,30.2,28.4,93,30.30,10.0,Calm,Calm,-,N/A,,Clear,0,2013-11-07 10:15:00
4:35 AM,30.2,30.2,100,30.30,10.0,Calm,Calm,-,N/A,,Clear,0,2013-11-07 10:35:00
4:55 AM,28.4,28.4,100,30.30,10.0,SSW,5.8,-,N/A,,Clear,210,2013-11-07 10:55:00
5:15 AM,26.6,26.6,100,30.31,10.0,SW,8.1,-,N/A,,Clear,220,2013-11-07 11:15:00
5:35 AM,26.6,26.6,100,30.32,10.0,SW,5.8,-,N/A,,Clear,220,2013-11-07 11:35:00
5:55 AM,28.4,26.6,93,30.32,10.0,WSW,4.6,-,N/A,,Clear,250,2013-11-07 11:55:00
6:15 AM,28.4,28.4,100,30.33,10.0,SW,8.1,-,N/A,,Clear,230,2013-11-07 12:15:00
6:35 AM,28.4,26.6,93,30.33,10.0,WSW,5.8,-,N/A,,Clear,250,2013-11-07 12:35:00
6:55 AM,28.4,26.6,93,30.34,10.0,West,4.6,-,N/A,,Clear,260,2013-11-07 12:55:00
7:15 AM,30.2,28.4,93,30.35,10.0,Calm,Calm,-,N/A,,Clear,0,2013-11-07 13:15:00
7:35 AM,32.0,28.4,87,30.35,10.0,Variable,3.5,-,N/A,,Clear,0,2013-11-07 13:35:00
7:55 AM,32.0,30.2,93,30.36,10.0,SW,5.8,-,N/A,,Clear,230,2013-11-07 13:55:00
8:15 AM,33.8,30.2,87,30.37,10.0,WSW,4.6,-,N/A,,Clear,250,2013-11-07 14:15:00
8:35 AM,35.6,32.0,87,30.38,10.0,WSW,6.9,-,N/A,,Clear,250,2013-11-07 14:35:00
8:55 AM,37.4,32.0,81,30.39,10.0,West,8.1,-,N/A,,Clear,270,2013-11-07 14:55:00
9:15 AM,37.4,32.0,81,30.39,10.0,West,9.2,-,N/A,,Clear,280,2013-11-07 15:15:00
9:35 AM,39.2,33.8,81,30.39,10.0,Variable,6.9,-,N/A,,Clear,0,2013-11-07 15:35:00
9:55 AM,41.0,32.0,70,30.39,10.0,NW,9.2,-,N/A,,Clear,310,2013-11-07 15:55:00
10:15 AM,42.8,32.0,66,30.39,10.0,WNW,12.7,18.4,N/A,,Clear,300,2013-11-07 16:15:00
10:35 AM,44.6,30.2,57,30.40,10.0,NW,9.2,17.3,N/A,,Clear,310,2013-11-07 16:35:00
10:55 AM,44.6,30.2,57,30.40,10.0,WNW,10.4,-,N/A,,Clear,300,2013-11-07 16:55:00
11:15 AM,46.4,30.2,53,30.40,10.0,NW,9.2,17.3,N/A,,Clear,310,2013-11-07 17:15:00
11:35 AM,46.4,28.4,50,30.40,10.0,NW,12.7,19.6,N/A,,Clear,310,2013-11-07 17:35:00
11:55 AM,46.4,24.8,43,30.39,10.0,NW,15.0,21.9,N/A,,Clear,310,2013-11-07 17:55:00
12:15 PM,48.2,24.8,40,30.38,10.0,NW,12.7,20.7,N/A,,Clear,320,2013-11-07 18:15:00
12:35 PM,48.2,24.8,40,30.38,10.0,NW,11.5,20.7,N/A,,Clear,310,2013-11-07 18:35:00
12:55 PM,48.2,23.0,37,30.37,10.0,NW,12.7,20.7,N/A,,Clear,310,2013-11-07 18:55:00
1:15 PM,48.2,24.8,40,30.37,10.0,NW,11.5,19.6,N/A,,Clear,320,2013-11-07 19:15:00
1:35 PM,50.0,24.8,37,30.37,10.0,NW,12.7,-,N/A,,Clear,310,2013-11-07 19:35:00
1:55 PM,50.0,23.0,35,30.37,10.0,WNW,10.4,17.3,N/A,,Clear,300,2013-11-07 19:55:00
2:15 PM,50.0,23.0,35,30.36,10.0,NNW,15.0,-,N/A,,Clear,330,2013-11-07 20:15:00
2:35 PM,50.0,23.0,35,30.36,10.0,NNW,12.7,-,N/A,,Clear,330,2013-11-07 20:35:00
2:55 PM,50.0,21.2,32,30.36,10.0,NNW,10.4,18.4,N/A,,Clear,330,2013-11-07 20:55:00
3:15 PM,50.0,19.4,30,30.36,10.0,NNW,9.2,17.3,N/A,,Clear,340,2013-11-07 21:15:00
3:35 PM,50.0,23.0,35,30.36,10.0,NW,6.9,-,N/A,,Clear,320,2013-11-07 21:35:00
3:55 PM,50.0,21.2,32,30.36,10.0,NW,9.2,-,N/A,,Clear,320,2013-11-07 21:55:00
4:35 PM,48.2,21.2,34,30.36,10.0,NW,8.1,-,N/A,,Clear,310,2013-11-07 22:35:00
4:55 PM,46.4,23.0,40,30.36,10.0,NW,3.5,-,N/A,,Clear,320,2013-11-07 22:55:00
5:15 PM,44.6,23.0,43,30.36,10.0,Calm,Calm,-,N/A,,Clear,0,2013-11-07 23:15:00
5:35 PM,37.4,24.8,60,30.36,10.0,Calm,Calm,-,N/A,,Clear,0,2013-11-07 23:35:00
5:55 PM,37.4,24.8,60,30.37,10.0,Calm,Calm,-,N/A,,Clear,0,2013-11-07 23:55:00
6:15 PM,41.0,23.0,49,30.36,10.0,Calm,Calm,-,N/A,,Clear,0,2013-11-08 00:15:00
6:35 PM,32.0,24.8,75,30.36,10.0,Calm,Calm,-,N/A,,Clear,0,2013-11-08 00:35:00
6:55 PM,33.8,24.8,70,30.36,10.0,SSE,4.6,-,N/A,,Clear,160,2013-11-08 00:55:00
7:15 PM,32.0,24.8,75,30.36,10.0,Calm,Calm,-,N/A,,Clear,0,2013-11-08 01:15:00
7:35 PM,32.0,24.8,75,30.35,10.0,Calm,Calm,-,N/A,,Clear,0,2013-11-08 01:35:00
7:55 PM,30.2,24.8,80,30.34,10.0,Calm,Calm,-,N/A,,Clear,0,2013-11-08 01:55:00
8:15 PM,32.0,24.8,75,30.35,10.0,Calm,Calm,-,N/A,,Clear,0,2013-11-08 02:15:00
8:35 PM,28.4,24.8,86,30.34,10.0,Calm,Calm,-,N/A,,Clear,0,2013-11-08 02:35:00
8:55 PM,28.4,24.8,86,30.35,10.0,SSE,4.6,-,N/A,,Clear,160,2013-11-08 02:55:00
9:15 PM,28.4,24.8,86,30.35,10.0,Calm,Calm,-,N/A,,Clear,0,2013-11-08 03:15:00
9:35 PM,26.6,24.8,93,30.35,10.0,Calm,Calm,-,N/A,,Clear,0,2013-11-08 03:35:00
9:55 PM,28.4,24.8,86,30.34,10.0,Calm,Calm,-,N/A,,Clear,0,2013-11-08 03:55:00
10:15 PM,26.6,24.8,93,30.34,10.0,Calm,Calm,-,N/A,,Clear,0,2013-11-08 04:15:00
10:35 PM,28.4,26.6,93,30.34,10.0,Calm,Calm,-,N/A,,Clear,0,2013-11-08 04:35:00
10:55 PM,26.6,26.6,100,30.33,10.0,Calm,Calm,-,N/A,,Clear,0,2013-11-08 04:55:00
11:15 PM,28.4,26.6,93,30.33,10.0,Calm,Calm,-,N/A,,Clear,0,2013-11-08 05:15:00
11:35 PM,28.4,26.6,93,30.32,10.0,Calm,Calm,-,N/A,,Clear,0,2013-11-08 05:35:00
11:55 PM,26.6,26.6,100,30.32,10.0,Calm,Calm,-,N/A,,Clear,0,2013-11-08 05:55:00